CZ-6A DEB, 56605

Orbit data source: Space-Track

CZ-6A DEB, 56605 is space debris in SSO originally from a launch on Fri, 11 Nov 2022 UTC launched from the Taiyaun Space Center, China (TSC). Debris objects in space refer to the collection of defunct objects orbiting the Earth. Examples of debris include non-operational satellites, rocket bodies, and fragments generated from explosions, collisions, or faulty payload assembly.

Loading next visibility...
Identifier
56605, 2022-151AED
Orbit
SSO
Country
Flag of CNCN / PRC
Related business
Manufacturer
SAST
Mission
Spacecraft
Bus & Motor
Unknown
Mass
Unknown
Launch date (UTC)
2022-11-11 (4 years ago)
Launch vehicle
Unknown
Launch site
Taiyaun Space Center, China (TSC)
Object type
Payload
Rocket body
Debris
Shape & HBR
Unknown shape, 0.1 m
Radar Cross Section
Small (<0.1 m²)

Expand to show TLE details & history
Last TLE update: 10 hours ago

TLE from 10 hours ago
0 CZ-6A DEB
1 56605U 22151AED 26220.04508008  .00002000  00000-0  67072-3 0  9997
2 56605  98.7702 257.3941 0004657 102.6737 257.4970 14.38406537182642
Epoch: 2026-08-08T01:04Z
TLE epoch observation values (Epoch: 2026-08-08T01:04:54.918Z)
Latitude
-0.00008°
Longitude
-75.39678°
Altitude
767.427 km
Speed
7.47 km/s
True Right ascension
17h 09m 34s
True Declination
0° 00' 00"
Sunlit
Object was in full shadow at epoch
Visualization orbit readout
Latitude
Unknown
Longitude
Unknown
Altitude
Unknown
Speed
Unknown
Apparent Right ascension
Unknown
Apparent Declination
Unknown
Sunlit
N/A
Visualization observer readout
Local Sidereal Time
01:09:17
Azimuth
Unknown
Elevation
Unknown
Doppler factor
Unknown
Orbital elements
Apogee altitude
764.23 km
Perigee altitude
757.58 km
Semi-major axis
7,139.042 km
Eccentricity
0.00047
Inclination
98.7702°
RAAN
257.3941°
Arg. of periapsis
102.6737°
True anomaly
257.44491°
Mean anomaly
257.497°
Eccentric anomaly
257.47095°
Mean motion
3.59818 °/min
Orbital period
100.05 mins
BSTAR
0.00067072
Loading maneuver chart data...
Computing Atmospheric mass density...
Loading historical data...
Loading historical data...
Loading historical data...
Loading historical data...
Loading historical data...
Loading historical data...
Loading historical data...

Documentation

Showing up to 5 results
|